Voltar ao catálogo

ATLAS 5 CENTAUR DEB

AtivoHEO
NORAD 43988·DEBRIS·🇺🇸 United States

Lançado Sep 17, 2014 de Cape Canaveral Space Force Station

Loading…

Próximas Passagens (próximas 24 horas)

TLE

AtualizadoSource: Space-Track

Época: Sep 14, 2026, 00:43 UTC

1 43988U 14055AT  26257.03001901 -.00000114  00000-0  00000-0 0  9990
2 43988  20.3627 129.8940 4725966 190.5157 154.4060  1.87317249 55028

Acompanhe ATLAS 5 CENTAUR DEB em tempo real com AllMySat

Download on the App Store